Voltar ao catálogo

STARLINK-34160

AtivoComunicaçõesVLEO
NORAD 64119·PAYLOAD·🇺🇸 United States

Lançado May 23, 2025 de Vandenberg Space Force Base

Loading…

Próximas Passagens (próximas 24 horas)

TLE

AtualizadoSource: CelesTrak SupGP

Época: Sep 15, 2026, 03:01 UTC

1 64119C 25110Z   26258.12618056 -.00069078  00000+0 -20408-2 0  2587
2 64119  53.1571 219.1841 0001277  92.4038 277.4500 15.34426836    12

Acompanhe STARLINK-34160 em tempo real com AllMySat

Download on the App Store